Location: Newark
(57.7279°N, 5.6916°W)
Time: 09:08:19
(UTC+00:00)

N. Korean satellite - Pass Details

Date: 07 December 2019
Orbit: 454 x 508 km, 97.2° (Epoch: 17 January)

Event Time Altitude Azimuth Distance (km) Brightness Sun altitude
Rises 16:57:01 0° 160° (SSE) 2,609 10.4 -9.3°
Reaches altitude 10° 16:59:06 10° 159° (SSE) 1,726 9.4 -9.6°
Maximum altitude 17:02:50 79° 73° (ENE) 524 6.6 -10.0°
Drops below altitude 10° 17:06:33 10° 347° (NNW) 1,725 9.2 -10.5°
Sets 17:08:38 0° 347° (NNW) 2,608 10.1 -10.7°
